Flag for Greenland Weather past 2 weeks in Nuuk, Greenland

Now
50 °F

Drizzle. Partly sunny.


Feels Like: 47 °F
Forecast: 46 / 55 °F
Wind: 8 mph from Northeast

Location: Godthaab / Nuuk

Current Time: Jul 25, 2014 at 11:47:37 AM

Latest Report: Jul 25, 2014 at 10:50 AM


Visibility: N/A

Pressure: 29.95 "Hg

Humidity: 88%

Dew point: 46 °F

Location of NuukLocation

Historic Weather in Nuuk — Graph

°F

Nuuk temperature yesterday

Maximum temperature yesterday: 57 °F (at 2:50 PM)
Minimum temperature yesterday: 48 °F (at 3:20 AM)
Average temperature yesterday: 52 °F

Past Weeks' High & Low Weather Summary

 TemperatureHumidityPressure
High64 °F (Jul 14, 2:50 PM)100% (Jul 10, 9:50 AM)29.98 "Hg (Jul 10, 9:50 AM)
Low37 °F (Jul 13, 2:50 AM)37% (Jul 14, 2:50 PM)29.59 "Hg (Jul 15, 12:50 AM)
Average50 °F73%29.83 "Hg
* Reported Jul 10 9:50 AM — Jul 25 9:50 AM, Nuuk, Weather by CustomWeather, © 2014

Note: Actual official high and low records may vary slightly from our data, if they occured in-between our weather recording intervals... More about our weather records

Advertising

Nuuk weather history for previous 24 hours

 ConditionsComfort  
Time TempWeatherWind HumidityBarometerVisibility
9:50 AM
Jul 25
52 °FPartly sunny.9 mph72%29.92 "HgN/A
8:50 AM50 °FPartly sunny.12 mph76%29.92 "HgN/A
7:50 AM50 °FBroken clouds.5 mph71%29.92 "HgN/A
6:50 AM50 °FScattered clouds.2 mph82%29.92 "HgN/A
5:50 AM46 °FCool.8 mph93%29.92 "HgN/A
4:50 AM48 °FCool.8 mph87%29.89 "HgN/A
3:50 AM48 °FCool.2 mph82%29.83 "HgN/A
2:50 AM50 °FCool.7 mph76%29.83 "HgN/A
1:50 AM52 °FCool.6 mph72%29.80 "HgN/A
12:50 AM50 °FCool.10 mph82%29.80 "HgN/A
11:50 PM
Jul 24
52 °FCool.7 mph72%29.83 "HgN/A
10:50 PM50 °FCool.2 mph82%29.83 "HgN/A
9:50 PM52 °FCool.5 mph77%29.83 "HgN/A
8:50 PM52 °FCool.9 mph77%29.83 "HgN/A
7:50 PM54 °FPassing clouds.5 mph67%29.80 "HgN/A
6:50 PM55 °FPassing clouds.6 mph63%29.80 "HgN/A
5:50 PM55 °FPassing clouds.8 mph63%29.80 "HgN/A
4:50 PM55 °FPassing clouds.10 mph67%29.83 "HgN/A
2:50 PM57 °FSunny.6 mph63%29.80 "HgN/A
12:50 PM55 °FSunny.5 mph63%29.83 "HgN/A
11:50 AM54 °FSunny.6 mph67%29.86 "HgN/A
Weather by CustomWeather, © 2014

See weather overviewHow to use our weather pages